Terminal Aerodrome Forecast
Issued by NWS Sterling, VA

Current Version | Previous Version | Text Only | Print | Product List | Glossary Off
Versions: 1 2 3 4 5 6 7 8 9 10 11 12 13 14 15 16 17 18 19 20 21 22 23 24 25

000
FTUS41 KLWX 301400 AAA
TAFDCA
TAF AMD
KDCA 301447Z 3015/3112 32012KT P6SM SCT070 SCT120
     FM310100 00000KT P6SM FEW200
     FM310300 00000KT P6SM FEW040
     FM310800 00000KT P6SM SCT200=

USA.gov is the U.S. government's official web portal to all federal, state and local government web resources and services.